[[{"header":{"parameterUnit":"m.s-1","parameterCategory":1,"la1":30.2991,"la2":30.254,"lo1":-89.0895,"lo2":-89.0444,"dy":0.0017,"dx":0.0017,"nx":28,"ny":28,"refTime":"2023-04-28T21:00:00:Z","depth":0,"parameterNumber":2,"parameterNumberName":"U-component_of_WINDS"},"data":[0,0,0,0,0,0,0,0,0,0,0,0,0,0,0,0,0,0,0,0,0,0,0,0,0,0,0,0,0,0,0,0,0,0,0,0,0,0,0,0,0,0,0,0,0,0,0,0,0,0,0,0,0,0,0,0,0,0,6.4838,6.484,0,6.5003,6.5005,6.5007,6.4937,6.4933,6.493,6.4926,6.5098,6.5106,6.5114,0,0,0,0,0,0,0,0,0,0,0,0,0,6.4466,6.4473,6.4838,6.484,6.4842,6.5003,6.5005,6.5007,6.4938,6.4933,6.4928,6.4924,6.5095,6.5105,6.5115,0,0,0,0,0,0,0,0,0,0,0,0,0,6.4629,6.4475,6.4837,6.4827,6.4827,6.5002,6.5005,6.5008,6.4939,6.4933,6.4927,6.4922,6.5092,6.5104,6.5116,6.5313,0,0,6.5154,6.516,0,0,0,0,0,0,0,0,6.462,6.4643,6.4826,6.4828,6.4829,6.4943,6.4937,6.511,6.4941,6.4897,6.4926,6.4919,6.5052,6.5067,6.5111,6.5321,6.5328,6.5156,6.5163,6.5168,6.5172,0,0,0,0,0,0,0,6.4609,6.4635,6.4903,6.4829,6.4831,6.4815,6.4831,6.497,6.5006,6.49,6.4896,6.4916,6.5051,6.5099,6.5115,6.5331,6.5155,6.5166,6.5174,6.5179,6.5711,6.5718,0,0,0,0,0,0,6.4597,6.4626,6.4898,6.4908,6.4707,6.4826,6.4845,6.4913,6.5004,6.5012,6.4921,6.4912,6.5081,6.51,6.5121,6.5357,6.5168,6.518,6.5187,6.5705,6.5713,6.572,0,0,0,0,0,0,6.4589,6.4622,6.4891,6.4766,6.4799,6.4839,6.4916,6.4919,6.4967,6.502,6.5026,6.4963,6.5077,6.5103,6.5266,6.5362,6.5186,6.5197,6.5697,6.5707,6.5717,6.5832,0,0,0,0,0,0,6.4579,6.4619,6.4693,6.4768,6.4806,6.5033,6.4922,6.4927,6.4988,6.4979,6.5061,6.5069,6.5074,6.5247,6.5278,6.5376,6.5207,6.5688,6.5701,6.5713,6.582,6.5845,6.5866,0,0,0,0,0,6.4566,6.4719,6.4697,6.473,6.4899,6.5038,6.506,6.5062,6.4996,6.5072,6.5106,6.5066,6.5347,6.5265,6.5298,6.5402,6.5682,6.5698,6.5712,6.5809,6.584,6.5866,0,0,0,0,0,0,6.4655,6.4729,6.4705,6.4887,6.4957,6.5026,6.5121,6.5094,6.5185,6.5172,6.5172,6.5191,6.5359,6.5397,6.5304,6.5598,6.5505,6.5527,6.5567,6.5596,6.5619,6.5607,6.5217,0,0,0,0,0,6.4696,6.4802,6.4861,6.5016,6.5052,6.5081,6.5142,6.5138,6.521,6.5239,6.5285,6.5358,6.5462,6.5531,6.563,6.5825,6.5843,6.5913,6.5936,6.5955,6.5975,6.6082,6.6114,6.577,6.5769,6.5769,0,0,6.4782,6.4835,6.4902,6.5036,6.5089,6.52,6.5106,6.5227,6.531,6.5258,6.5414,6.5451,6.5532,6.5712,6.5793,6.5748,6.6074,6.5974,6.5989,6.5998,6.6101,6.6133,6.6162,6.578,6.5778,6.5776,0,0,6.4994,6.5045,6.518,6.5236,6.5318,6.5336,6.5369,6.5443,6.5465,6.5622,6.5586,6.5685,6.5865,6.5925,6.5979,6.6217,6.6184,6.6249,6.637,6.6475,6.6502,6.6526,6.6612,6.6643,6.6268,6.6269,6.6269,0,6.5091,6.5255,6.5254,6.5378,6.5439,6.5397,6.5535,6.5589,6.57,6.5744,6.5691,6.5917,6.5969,6.6163,6.6221,6.6266,6.6304,6.6239,6.6498,6.6522,6.6545,6.6627,6.6659,6.6276,6.6275,6.6274,6.6274,0,6.537,6.5485,6.5585,6.5693,6.5765,6.5895,6.5915,6.5988,6.5979,6.6003,6.6165,6.6225,6.6337,6.6382,6.6374,6.6576,6.6546,6.6496,6.6403,6.6585,6.6662,6.6693,6.6286,6.6284,6.6282,6.628,0,0,6.5644,6.5749,6.5786,6.5835,6.5923,6.6013,6.6143,6.6251,6.6314,6.6393,6.6502,6.6656,6.6611,6.6673,6.6671,6.6763,6.6949,6.6702,6.6704,6.6747,6.7178,6.7215,6.7251,6.6928,6.6934,6.6939,6.7171,0,6.5864,6.609,6.6093,6.6302,6.6409,6.6371,6.6485,6.6552,6.6579,6.6675,6.6704,6.6814,6.6746,6.6783,6.6872,6.6908,6.7036,6.6891,6.7032,6.7037,6.7013,6.7291,6.7331,6.7547,6.7201,6.7206,6.721,0,6.6151,6.6238,6.6457,6.6531,6.6576,6.6678,6.6778,6.687,6.6946,6.6959,6.7029,6.7014,6.7148,6.7051,6.7236,6.7138,6.7196,6.7222,6.7231,6.7244,6.7135,6.7313,6.7615,6.7648,6.7257,6.7253,6.725,0,6.633,6.6502,6.6656,6.6699,6.6788,6.6861,6.6902,6.6972,6.7038,6.7126,6.7169,6.7272,6.7329,6.741,6.7424,6.7351,6.7611,6.7514,6.7627,6.7627,6.7683,6.768,6.8,6.772,6.7719,6.7719,6.7718,0,6.6576,6.6712,6.6737,6.6832,6.6984,6.6987,6.7137,6.7173,6.7236,6.7338,6.7312,6.7409,6.7421,6.7521,6.7533,6.7686,6.7712,6.7727,6.7729,6.773,6.7728,6.7768,6.7754,6.7727,6.7725,6.7724,6.7722,0,6.6801,6.6823,6.6989,6.706,6.7082,6.7191,6.7253,6.7344,6.7368,6.7498,6.7529,6.7568,6.7685,6.7706,6.7845,6.7853,6.8036,6.8022,6.801,6.8008,6.812,6.811,6.8478,6.8527,6.8214,6.8217,6.822,0,6.6957,6.706,6.7143,6.7209,6.7254,6.7361,6.7427,6.7435,6.7506,6.7602,6.7682,6.7796,6.7888,6.8077,6.8119,6.8225,6.8214,6.8336,6.823,6.8228,6.8217,6.8211,6.8222,6.8356,6.8359,6.8362,6.8364,0,6.7232,6.7238,6.7334,6.7436,6.7516,6.7596,6.7672,6.7728,6.7746,6.7828,6.7947,6.8018,6.8159,6.8273,6.8379,6.8423,6.8398,6.8397,6.8429,6.8432,6.8421,6.8429,6.8066,6.8389,6.8387,6.8385,6.8383,6.8382,6.7428,6.7518,6.7591,6.77,6.7758,6.783,6.792,6.7956,6.8055,6.817,6.8169,6.83,6.8375,6.8515,6.8565,6.8669,6.863,6.8676,6.8688,6.87,6.8711,6.8404,6.8688,6.8688,6.8687,6.8686,6.8686,0,6.7702,6.7747,6.7847,6.7954,6.8041,6.8008,6.8091,6.8166,6.8281,6.8353,6.8444,6.8581,6.8692,6.8743,6.8853,6.8926,6.8918,6.8955,6.895,6.8961,6.8738,6.87,6.896,6.896,6.896,6.896,6.896,6.896,6.7855,6.8007,6.8022,6.8204,6.8248,6.8375,6.8426,6.8493,6.855,6.8705,6.8797,6.8829,6.8893,6.9007,6.9109,6.9121,6.9163,6.9206,6.9213,6.9004,6.8976,6.895,6.8914,6.9215,6.9215,6.9427,6.9429,6.9431]},{"header":{"parameterUnit":"m.s-1","parameterCategory":1,"la1":30.2991,"la2":30.254,"lo1":-89.0895,"lo2":-89.0444,"dy":0.0017,"dx":0.0017,"nx":28,"ny":28,"refTime":"2023-04-28T21:00:00:Z","depth":0,"parameterNumber":3,"parameterNumberName":"V-component_of_WINDS"},"data":[0,0,0,0,0,0,0,0,0,0,0,0,0,0,0,0,0,0,0,0,0,0,0,0,0,0,0,0,0,0,0,0,0,0,0,0,0,0,0,0,0,0,0,0,0,0,0,0,0,0,0,0,0,0,0,0,0,0,-2.5926,-2.5927,0,-2.6027,-2.6029,-2.603,-2.6038,-2.6037,-2.6036,-2.6035,-2.6138,-2.6141,-2.6145,0,0,0,0,0,0,0,0,0,0,0,0,0,-2.574,-2.5743,-2.5926,-2.5927,-2.5929,-2.6027,-2.6029,-2.603,-2.6038,-2.6037,-2.6035,-2.6034,-2.6136,-2.6141,-2.6145,0,0,0,0,0,0,0,0,0,0,0,0,0,-2.5829,-2.5745,-2.5926,-2.5945,-2.5947,-2.6027,-2.6029,-2.603,-2.6038,-2.6037,-2.6035,-2.6034,-2.6135,-2.614,-2.6146,-2.6213,0,0,-2.6163,-2.6165,0,0,0,0,0,0,0,0,-2.5824,-2.5836,-2.5941,-2.5944,-2.5947,-2.6018,-2.6001,-2.6092,-2.6039,-2.6004,-2.6035,-2.6033,-2.6099,-2.6108,-2.613,-2.6218,-2.6223,-2.6164,-2.6167,-2.6169,-2.6171,0,0,0,0,0,0,0,-2.5818,-2.5832,-2.5966,-2.5942,-2.5946,-2.5948,-2.5959,-2.6018,-2.6059,-2.6007,-2.6008,-2.6019,-2.61,-2.6125,-2.6133,-2.6224,-2.6163,-2.6168,-2.6172,-2.6174,-2.6373,-2.6375,0,0,0,0,0,0,-2.5808,-2.5826,-2.5963,-2.5969,-2.588,-2.5953,-2.5965,-2.5997,-2.6059,-2.6067,-2.6021,-2.6019,-2.6116,-2.6126,-2.6136,-2.622,-2.6169,-2.6175,-2.6178,-2.6371,-2.6374,-2.6376,0,0,0,0,0,0,-2.5804,-2.582,-2.5959,-2.5898,-2.5916,-2.5958,-2.5994,-2.6,-2.6024,-2.6069,-2.6077,-2.6038,-2.6115,-2.6128,-2.6194,-2.6223,-2.6177,-2.6182,-2.6369,-2.6372,-2.6375,-2.6387,0,0,0,0,0,0,-2.5799,-2.5819,-2.5845,-2.5899,-2.5919,-2.6015,-2.5996,-2.6003,-2.6034,-2.6033,-2.6087,-2.6095,-2.6115,-2.6186,-2.62,-2.623,-2.6187,-2.6367,-2.6371,-2.6374,-2.6384,-2.639,-2.6395,0,0,0,0,0,-2.5792,-2.5844,-2.5846,-2.5863,-2.5953,-2.6017,-2.6029,-2.6051,-2.6036,-2.6063,-2.6092,-2.6093,-2.6218,-2.6193,-2.6209,-2.6241,-2.6365,-2.6369,-2.6374,-2.6382,-2.6389,-2.6395,0,0,0,0,0,0,-2.5792,-2.5851,-2.5854,-2.5925,-2.5966,-2.6018,-2.6052,-2.6057,-2.6103,-2.61,-2.6126,-2.6138,-2.6203,-2.6229,-2.6199,-2.631,-2.629,-2.6298,-2.6291,-2.6298,-2.6303,-2.6295,-2.6191,0,0,0,0,0,-2.58,-2.5848,-2.5897,-2.5955,-2.5975,-2.601,-2.6039,-2.6053,-2.6096,-2.6113,-2.6147,-2.6189,-2.6238,-2.6269,-2.6316,-2.6388,-2.64,-2.6418,-2.6424,-2.6428,-2.6434,-2.6474,-2.6483,-2.639,-2.639,-2.639,0,0,-2.5818,-2.5856,-2.5884,-2.5956,-2.5989,-2.6037,-2.6025,-2.6076,-2.6113,-2.6121,-2.6185,-2.6212,-2.626,-2.6329,-2.6362,-2.6353,-2.6462,-2.6433,-2.6436,-2.644,-2.6479,-2.6488,-2.6496,-2.6393,-2.6392,-2.6392,0,0,-2.5874,-2.5908,-2.596,-2.5994,-2.6045,-2.6068,-2.608,-2.6132,-2.615,-2.6215,-2.6223,-2.6266,-2.635,-2.6384,-2.6412,-2.6483,-2.6486,-2.6498,-2.6525,-2.6564,-2.6571,-2.6578,-2.6603,-2.6612,-2.6504,-2.6504,-2.6504,0,-2.589,-2.5963,-2.5986,-2.6038,-2.6069,-2.6079,-2.6132,-2.6164,-2.6227,-2.6249,-2.6238,-2.6343,-2.6377,-2.6454,-2.6471,-2.6494,-2.6509,-2.6491,-2.6568,-2.6575,-2.6582,-2.6606,-2.6615,-2.6505,-2.6505,-2.6505,-2.6504,0,-2.5979,-2.603,-2.6066,-2.6128,-2.6163,-2.6215,-2.6246,-2.6279,-2.629,-2.6314,-2.6381,-2.6421,-2.6477,-2.6497,-2.6507,-2.6576,-2.6569,-2.6563,-2.6543,-2.6591,-2.6615,-2.6624,-2.6506,-2.6506,-2.6506,-2.6505,0,0,-2.6038,-2.6112,-2.6125,-2.6153,-2.621,-2.625,-2.6303,-2.6358,-2.6386,-2.6429,-2.6474,-2.6545,-2.654,-2.6572,-2.6587,-2.6621,-2.6675,-2.6612,-2.6613,-2.6622,-2.6753,-2.6757,-2.6767,-2.6677,-2.6679,-2.6681,-2.6749,0,-2.6101,-2.6195,-2.6218,-2.6299,-2.6346,-2.6357,-2.6403,-2.6443,-2.6467,-2.6511,-2.6538,-2.6588,-2.6578,-2.6597,-2.6631,-2.6661,-2.6702,-2.6656,-2.6719,-2.6721,-2.6706,-2.678,-2.6784,-2.6846,-2.6758,-2.676,-2.6761,0,-2.6187,-2.6233,-2.6318,-2.637,-2.639,-2.6431,-2.6484,-2.6526,-2.6571,-2.6587,-2.6623,-2.6635,-2.669,-2.6668,-2.6745,-2.6714,-2.6741,-2.676,-2.6763,-2.6769,-2.6744,-2.6788,-2.6867,-2.6876,-2.6776,-2.6774,-2.6773,0,-2.6221,-2.6305,-2.6367,-2.639,-2.6452,-2.648,-2.6507,-2.6551,-2.6583,-2.6629,-2.665,-2.6702,-2.673,-2.677,-2.6795,-2.6777,-2.687,-2.685,-2.6884,-2.6884,-2.6903,-2.6901,-2.6987,-2.6921,-2.6921,-2.6921,-2.692,0,-2.6289,-2.6341,-2.6383,-2.6421,-2.6479,-2.6505,-2.6562,-2.6589,-2.6629,-2.6672,-2.6685,-2.6726,-2.6757,-2.6802,-2.6822,-2.6883,-2.6895,-2.6909,-2.6914,-2.6908,-2.6906,-2.6926,-2.6922,-2.6923,-2.6923,-2.6922,-2.6922,0,-2.6337,-2.6367,-2.6436,-2.6488,-2.6503,-2.6544,-2.6589,-2.6626,-2.6651,-2.6706,-2.6721,-2.676,-2.6814,-2.6843,-2.691,-2.6924,-2.6992,-2.6994,-2.6976,-2.6978,-2.7011,-2.7007,-2.7112,-2.7127,-2.7051,-2.7051,-2.7052,0,-2.6379,-2.6419,-2.6476,-2.6506,-2.6534,-2.6582,-2.6615,-2.6642,-2.6675,-2.6731,-2.6761,-2.6816,-2.6861,-2.6946,-2.6981,-2.7032,-2.7036,-2.7069,-2.7044,-2.7037,-2.7037,-2.7034,-2.7038,-2.7074,-2.7074,-2.7075,-2.7075,0,-2.6449,-2.6462,-2.6508,-2.656,-2.6599,-2.6641,-2.6683,-2.6707,-2.6741,-2.6778,-2.6833,-2.6868,-2.6937,-2.6991,-2.7046,-2.7073,-2.708,-2.7083,-2.7094,-2.7088,-2.7076,-2.7083,-2.6988,-2.708,-2.708,-2.708,-2.7079,-2.7079,-2.6495,-2.6531,-2.6577,-2.6629,-2.6663,-2.6702,-2.674,-2.677,-2.6816,-2.6875,-2.6888,-2.6946,-2.6991,-2.7065,-2.7095,-2.7141,-2.7134,-2.715,-2.7154,-2.7157,-2.7158,-2.7069,-2.7151,-2.7151,-2.7151,-2.715,-2.715,0,-2.6565,-2.6596,-2.6643,-2.6701,-2.6742,-2.6745,-2.6792,-2.6825,-2.6877,-2.6918,-2.6962,-2.7026,-2.7079,-2.7118,-2.7171,-2.7201,-2.7205,-2.7214,-2.7212,-2.7218,-2.7161,-2.7146,-2.721,-2.721,-2.7209,-2.7209,-2.7209,-2.7209,-2.6607,-2.6669,-2.6687,-2.6766,-2.6796,-2.6854,-2.688,-2.6916,-2.695,-2.702,-2.7064,-2.7089,-2.713,-2.7187,-2.7235,-2.7245,-2.7264,-2.7273,-2.7283,-2.7229,-2.7222,-2.7216,-2.7203,-2.7277,-2.7277,-2.7337,-2.7338,-2.7338]}]]